Regional Weather Roundup
Issued by NWS

Home | Current Version | Previous Version | Text Only | Print | Product List | Glossary On
Versions: 1 2 3 4 5 6 7 8 9 10 11 12 13 14 15 16 17 18 19 20 21 22 23 24 25 26 27 28 29 30 31 32 33 34 35 36 37 38 39 40 41 42 43 44 45 46 47 48 49 50
000
ASUS43 KDMX 281907
RWRIA

WEATHER ROUNDUP FOR IOWA
NATIONAL WEATHER SERVICE DES MOINES IA
100 PM CST SAT FEB 28 2015

NOTE: "FAIR" INDICATES FEW OR NO CLOUDS BELOW 12,000 FEET WITH NO
SIGNIFICANT WEATHER AND/OR OBSTRUCTIONS TO VISIBILITY.

* - THESE STATIONS ARE NOT NWS STATIONS...THUS NOT UNDER NWS
QUALITY CONTROL.  THEY ALSO DO NOT REPORT WEATHER SUCH
AS PRECIPITATION OR FOG.

IAZ001>003-012>014-020>022-031>034-043>046-282000-
   NORTHWEST IOWA

CITY           SKY/WX    TMP DP  RH WIND       PRES   REMARKS
CARROLL *      PTSUNNY   21  10  63 S14       30.42F WCI   8
CHEROKEE *     SUNNY     19   9  63 S15       30.40F WCI   5
DENISON *      CLOUDY    21  10  63 S15       30.39F WCI   8
LE MARS *      CLOUDY    23  12  63 S18       30.37F WCI   9
ORANGE CITY *  SUNNY     21  10  63 S22G28    30.34F WCI   5
SHELDON *      MOSUNNY   19   9  63 S21G26    30.34F WCI   3
SIOUX CITY     CLOUDY    25  13  60 S16       30.39F WCI  12
SPENCER        SUNNY     19   8  62 S17       30.38F WCI   4
STORM LAKE *   SUNNY     18   9  68 S15       30.39F WCI   3
$$

IAZ055>058-069>071-079>083-090>094-282000-
   SOUTHWEST IOWA

CITY           SKY/WX    TMP DP  RH WIND       PRES   REMARKS
ATLANTIC *     MOSUNNY   21   9  58 S10       30.42F WCI  10
AUDUBON *      SUNNY     21  10  63 S13       30.42F WCI   9
CLARINDA *     MIX PCPN  23  16  74 S10       30.46F WCI  12
COUNCIL BLFS * MOSUNNY   21  14  73 S10       30.40F HAZE    WCI  10
CRESTON *      CLOUDY    21  12  68 S12       30.44F HAZE    WCI   9
HARLAN  *      SUNNY     21  12  68 S15       30.45F WCI   8
LAMONI         CLOUDY    22  12  65 S7        30.45F WCI  13
RED OAK *      LGT SNOW  21  16  79 SW6       30.44F WCI  14
SHENANDOAH *   CLOUDY    23  16  74 S9        30.45F HAZE    WCI  13
$$

IAZ047>049-059>061-072>074-084-282000-
   CENTRAL IOWA

CITY           SKY/WX    TMP DP  RH WIND       PRES   REMARKS
AMES           MOSUNNY   18   6  59 SE10      30.49F WCI   6
ANKENY *       SUNNY     19   7  58 S9        30.50F WCI   9
CHARITON *     MOSUNNY   23  10  58 S9        30.48F WCI  13
DES MOINES     PTSUNNY   22   8  55 S13       30.49F WCI  10
GRINNELL*      MOSUNNY   18   7  62 E9        30.51F WCI   6
KNOXVILLE *    CLOUDY    23   7  50 SE10      30.48F WCI  12
MARSHALLTOWN   PTSUNNY   14   3  61 SE9       30.50F WCI   2
PELLA *        MOSUNNY   23  10  58 SE5       30.52F WCI  17
PERRY *          N/A     21  12  68 S9        30.47F WCI  11
$$

IAZ004>006-015-016-023>025-035-036-282000-
   NORTH CENTRAL IOWA

CITY           SKY/WX    TMP DP  RH WIND       PRES   REMARKS
ALGONA *       PTSUNNY   16   7  67 S14       30.44F WCI   1
CLARION *      SUNNY     16   9  73 S15       30.46F WCI   1
ESTHERVILLE      N/A     17   8  67 S22       30.39F WCI   0
FORT DODGE *   SUNNY     19   7  58 S10       30.45F WCI   8
MASON CITY     SUNNY      9   2  73 SE12      30.49F WCI  -6
FOREST CITY *  SUNNY     16   3  57 SE15      30.46F WCI   1
IOWA FALLS *     N/A     14   5  67 SE8       30.49F WCI   3
$$

IAZ007>011-017>019-026>030-037>042-050>054-066-282000-
   NORTHEAST IOWA

CITY           SKY/WX    TMP DP  RH WIND       PRES   REMARKS
CEDAR RAPIDS   SUNNY     15   0  51 SE8       30.54F WCI   4
CHARLES CITY * SUNNY     10   0  61 SE9       30.52F WCI  -2
CLINTON *      SUNNY     16   3  57 SE8       30.62F WCI   5
DECORAH *      SUNNY     12  -2  52 S9G16     30.52F WCI   0
DUBUQUE        SUNNY     12   2  64 S10       30.57F WCI  -1
MONTICELLO *   SUNNY     12   1  62 SE10      30.58F WCI  -1
OELWEIN *      SUNNY     10   1  67 SE10      30.53F WCI  -3
WATERLOO       SUNNY     12   1  61 SE8       30.53F WCI   0
$$

IAZ064-065-067-068-078-282000-
   EAST CENTRAL IOWA

CITY           SKY/WX    TMP DP  RH WIND       PRES   REMARKS
DAVENPORT      SUNNY     17   0  47 SE8       30.58F WCI   7
IOWA CITY      SUNNY     14   3  61 SE10      30.59F WCI   1
MT. PLEASANT * SUNNY     23   1  39 S5        30.55F WCI  17
MUSCATINE *    SUNNY     18   1  49 SE7       30.59F WCI   8
QUAD CITIES    SUNNY     16   1  51 SE7       30.59F WCI   6
$$

IAZ062-063-075>077-085>089-095>099-282000-
   SOUTHEAST IOWA

CITY           SKY/WX    TMP DP  RH WIND       PRES   REMARKS
BURLINGTON     MOSUNNY   19   4  51 SE8       30.55F WCI   9
FAIRFIELD *    MOSUNNY   19   5  53 E10       30.53F WCI   8
FORT MADISON * MOSUNNY   19   5  53 SE6       30.55F WCI  11
KEOKUK *       PTSUNNY   21   7  53 E10       30.53F WCI  10
OSKALOOSA *      N/A     21  10  63 E10       30.52F WCI  10
CENTERVILLE *  SUNNY     23  10  58 E7        30.49F WCI  15
OTTUMWA        PTSUNNY   22   8  55 S8        30.51F WCI  12
WASHINGTON *   PTSUNNY   18   9  68 E8        30.55F WCI   7
$$

ABBREVIATIONS USED IN REMARKS
   TC - TEMPERATURES IN CELSIUS
  WCI - WIND CHILL INDEX
   HX - HEAT INDEX
  VSB - VISIBILITY
$$




USA.gov is the U.S. government's official web portal to all federal, state and local government web resources and services.